| time (UTC) | temp C | wind direction | speed KPH | gust KPH | rain 1hr cm | rain 24hr cm | rain mn cm | humidity % | barometer mb |
| 20260505171503 | 13 | 0 | 0.0 | 0.0 | 0.00 | 0.00 | 0.00 | 35 | 1005.3 |
| 20260505171004 | 13 | 0 | 0.0 | 0.0 | 0.00 | 0.00 | 0.00 | 35 | 1005.3 |
| 20260505170504 | 13 | 0 | 0.0 | 0.0 | 0.00 | 0.00 | 0.00 | 36 | 1005.1 |
| 20260505165504 | 13 | 0 | 0.0 | 0.0 | 0.00 | 0.00 | 0.00 | 35 | 1005.2 |
| 20260505165004 | 13 | 0 | 0.0 | 0.0 | 0.00 | 0.00 | 0.00 | 35 | 1005.0 |
| 20260505164504 | 13 | 0 | 0.0 | 0.0 | 0.00 | 0.00 | 0.00 | 36 | 1005.1 |
| 20260505164004 | 13 | 0 | 0.0 | 0.0 | 0.00 | 0.00 | 0.00 | 36 | 1005.2 |
| 20260505163504 | 13 | 0 | 0.0 | 0.0 | 0.00 | 0.00 | 0.00 | 36 | 1005.4 |
| 20260505163004 | 13 | 0 | 0.0 | 0.0 | 0.00 | 0.00 | 0.00 | 36 | 1005.3 |
| 20260505162504 | 13 | 0 | 0.0 | 0.0 | 0.00 | 0.00 | 0.00 | 37 | 1005.3 |
| 20260505162004 | 13 | 0 | 0.0 | 0.0 | 0.00 | 0.00 | 0.00 | 37 | 1005.2 |
| 20260505161505 | 12 | 0 | 0.0 | 0.0 | 0.00 | 0.00 | 0.00 | 38 | 1005.2 |
| 20260505161004 | 13 | 0 | 0.0 | 0.0 | 0.00 | 0.00 | 0.00 | 37 | 1005.1 |
| 20260505160506 | 13 | 0 | 0.0 | 0.0 | 0.00 | 0.00 | 0.00 | 36 | 1004.8 |
| 20260505152504 | 12 | 0 | 0.0 | 0.0 | 0.00 | 0.00 | 0.00 | 36 | 1004.5 |
| 20260505152005 | 12 | 0 | 0.0 | 0.0 | 0.00 | 0.00 | 0.00 | 36 | 1004.3 |
| 20260505151504 | 12 | 0 | 0.0 | 0.0 | 0.00 | 0.00 | 0.00 | 35 | 1004.2 |
| 20260505150505 | 12 | 0 | 0.0 | 0.0 | 0.00 | 0.00 | 0.00 | 35 | 1003.9 |
| 20260505140504 | 11 | 0 | 0.0 | 0.0 | 0.00 | 0.00 | 0.00 | 36 | 1003.8 |
| 20260505125004 | 12 | 0 | 0.0 | 0.0 | 0.00 | 0.00 | 0.00 | 38 | 1001.5 |
| 20260505124503 | 12 | 0 | 0.0 | 0.0 | 0.00 | 0.00 | 0.00 | 38 | 1001.4 |
| 20260505123504 | 12 | 0 | 0.0 | 0.0 | 0.00 | 0.00 | 0.00 | 38 | 1001.3 |
| 20260505122004 | 12 | 0 | 0.0 | 0.0 | 0.00 | 0.00 | 0.00 | 39 | 1000.9 |
| 20260505121504 | 12 | 0 | 0.0 | 0.0 | 0.00 | 0.00 | 0.00 | 39 | 1000.9 |
| 20260505121004 | 12 | 0 | 0.0 | 0.0 | 0.00 | 0.00 | 0.00 | 39 | 1000.8 |
| 20260505120504 | 12 | 0 | 0.0 | 0.0 | 0.00 | 0.00 | 0.00 | 39 | 1000.9 |
| 20260505120005 | 12 | 0 | 0.0 | 0.0 | 0.00 | 0.00 | 0.00 | 39 | 1000.9 |
| 20260505115504 | 12 | 0 | 0.0 | 0.0 | 0.00 | 0.00 | 0.00 | 40 | 1000.8 |
| 20260505115003 | 12 | 0 | 0.0 | 0.0 | 0.00 | 0.00 | 0.00 | 40 | 1000.6 |
| 20260505114504 | 12 | 0 | 0.0 | 0.0 | 0.00 | 0.00 | 0.00 | 40 | 1000.4 |
| 20260505113504 | 12 | 0 | 0.0 | 0.0 | 0.00 | 0.00 | 0.00 | 40 | 1000.3 |
| 20260505113004 | 12 | 0 | 0.0 | 0.0 | 0.00 | 0.00 | 0.00 | 41 | 1000.4 |
| 20260505112003 | 13 | 0 | 0.0 | 0.0 | 0.00 | 0.00 | 0.00 | 41 | 1000.1 |
| 20260505111504 | 13 | 0 | 0.0 | 0.0 | 0.00 | 0.00 | 0.00 | 41 | 1000.0 |
| 20260505111004 | 13 | 0 | 0.0 | 0.0 | 0.00 | 0.00 | 0.00 | 41 | 1000.0 |
| 20260505110504 | 13 | 0 | 0.0 | 0.0 | 0.00 | 0.00 | 0.00 | 42 | 1000.0 |
| 20260505101504 | 16 | 0 | 0.0 | 0.0 | 0.00 | 0.00 | 0.00 | 35 | 999.5 |
| 20260505101003 | 16 | 0 | 0.0 | 0.0 | 0.00 | 0.00 | 0.00 | 32 | 999.5 |
| 20260505100504 | 16 | 0 | 0.0 | 0.0 | 0.00 | 0.00 | 0.00 | 30 | 999.3 |
| 20260505100004 | 17 | 0 | 0.0 | 0.0 | 0.00 | 0.00 | 0.00 | 21 | 999.1 |
| 20260505095504 | 18 | 0 | 0.0 | 0.0 | 0.00 | 0.00 | 0.00 | 18 | 998.9 |
| 20260505095004 | 19 | 0 | 0.0 | 0.0 | 0.00 | 0.00 | 0.00 | 15 | 998.8 |
| 20260505094504 | 20 | 0 | 0.0 | 0.0 | 0.00 | 0.00 | 0.00 | 12 | 998.6 |
| 20260505094005 | 20 | 0 | 0.0 | 0.0 | 0.00 | 0.00 | 0.00 | 12 | 998.5 |
| 20260505093504 | 18 | 0 | 0.0 | 0.0 | 0.00 | 0.00 | 0.00 | 14 | 998.3 |
| 20260505093004 | 18 | 0 | 0.0 | 0.0 | 0.00 | 0.00 | 0.00 | 15 | 998.3 |
| 20260505092504 | 18 | 0 | 0.0 | 0.0 | 0.00 | 0.00 | 0.00 | 16 | 998.3 |
| 20260505092004 | 18 | 0 | 0.0 | 0.0 | 0.00 | 0.00 | 0.00 | 16 | 998.2 |
| 20260505091504 | 18 | 0 | 0.0 | 0.0 | 0.00 | 0.00 | 0.00 | 16 | 998.2 |
| 20260505091003 | 18 | 0 | 0.0 | 0.0 | 0.00 | 0.00 | 0.00 | 16 | 998.0 |
| 20260505090504 | 18 | 0 | 0.0 | 0.0 | 0.00 | 0.00 | 0.00 | 15 | 997.8 |
| 20260505090004 | 18 | 0 | 0.0 | 0.0 | 0.00 | 0.00 | 0.00 | 15 | 997.5 |
| 20260505085504 | 19 | 0 | 0.0 | 0.0 | 0.00 | 0.00 | 0.00 | 14 | 997.6 |
| 20260505085004 | 19 | 0 | 0.0 | 0.0 | 0.00 | 0.00 | 0.00 | 14 | 997.5 |
| 20260505084503 | 19 | 0 | 0.0 | 0.0 | 0.00 | 0.00 | 0.00 | 14 | 997.5 |
| 20260505083504 | 20 | 0 | 0.0 | 0.0 | 0.00 | 0.00 | 0.00 | 14 | 997.5 |
| 20260505083005 | 20 | 4 | 0.0 | 0.0 | 0.00 | 0.00 | 0.00 | 13 | 997.4 |
| 20260505082504 | 20 | 0 | 0.0 | 0.0 | 0.00 | 0.00 | 0.00 | 13 | 997.4 |
| 20260505081004 | 20 | 0 | 0.0 | 0.0 | 0.00 | 0.00 | 0.00 | 13 | 997.6 |
| 20260505080504 | 20 | 0 | 0.0 | 0.0 | 0.00 | 0.00 | 0.00 | 12 | 997.7 |
| 20260505080004 | 20 | 0 | 0.0 | 0.0 | 0.00 | 0.00 | 0.00 | 12 | 997.7 |
| 20260505075004 | 21 | 10 | 0.0 | 0.0 | 0.00 | 0.00 | 0.00 | 12 | 997.9 |
| 20260505074504 | 21 | 5 | 0.0 | 0.0 | 0.00 | 0.00 | 0.00 | 12 | 997.9 |
| 20260505074004 | 21 | 0 | 0.0 | 0.0 | 0.00 | 0.00 | 0.00 | 12 | 997.9 |
| 20260505073504 | 21 | 0 | 0.0 | 0.0 | 0.00 | 0.00 | 0.00 | 12 | 997.9 |
| 20260505072504 | 21 | 0 | 0.0 | 0.0 | 0.00 | 0.00 | 0.00 | 12 | 998.0 |
| 20260505072004 | 21 | 0 | 0.0 | 0.0 | 0.00 | 0.00 | 0.00 | 11 | 997.9 |
| 20260505071004 | 21 | 0 | 0.0 | 0.0 | 0.00 | 0.00 | 0.00 | 11 | 997.9 |
| 20260505070504 | 22 | 0 | 0.0 | 0.0 | 0.00 | 0.00 | 0.00 | 11 | 998.0 |
| 20260505070004 | 22 | 3 | 0.0 | 0.0 | 0.00 | 0.00 | 0.00 | 10 | 998.0 |
| 20260505065503 | 22 | 0 | 0.0 | 0.0 | 0.00 | 0.00 | 0.00 | 10 | 998.0 |
| 20260505065004 | 22 | 52 | 0.0 | 0.0 | 0.00 | 0.00 | 0.00 | 10 | 998.0 |
| 20260505064504 | 22 | 0 | 0.0 | 0.0 | 0.00 | 0.00 | 0.00 | 10 | 998.0 |
| 20260505064004 | 22 | 0 | 0.0 | 0.0 | 0.00 | 0.00 | 0.00 | 10 | 998.0 |
| 20260505063504 | 22 | 0 | 0.0 | 0.0 | 0.00 | 0.00 | 0.00 | 10 | 998.1 |
| 20260505063004 | 22 | 0 | 0.0 | 0.0 | 0.00 | 0.00 | 0.00 | 10 | 998.2 |
| 20260505062503 | 22 | 0 | 0.0 | 0.0 | 0.00 | 0.00 | 0.00 | 9 | 998.3 |
| 20260505062004 | 22 | 0 | 0.0 | 0.0 | 0.00 | 0.00 | 0.00 | 9 | 998.2 |
| 20260505061503 | 23 | 0 | 0.0 | 0.0 | 0.00 | 0.00 | 0.00 | 9 | 998.3 |
| 20260505060504 | 23 | 4 | 0.0 | 0.0 | 0.00 | 0.00 | 0.00 | 9 | 998.3 |
| 20260505060004 | 23 | 106 | 0.0 | 0.0 | 0.00 | 0.00 | 0.00 | 9 | 998.2 |
| 20260505055004 | 23 | 77 | 0.0 | 0.0 | 0.00 | 0.00 | 0.00 | 9 | 998.2 |
| 20260505054504 | 23 | 2 | 0.0 | 0.0 | 0.00 | 0.00 | 0.00 | 8 | 998.3 |
| 20260505053504 | 23 | 93 | 0.0 | 0.0 | 0.00 | 0.00 | 0.00 | 8 | 998.2 |
| 20260505052004 | 23 | 107 | 0.0 | 0.0 | 0.00 | 0.00 | 0.00 | 9 | 998.3 |
| 20260505051503 | 23 | 108 | 0.0 | 0.0 | 0.00 | 0.00 | 0.00 | 9 | 998.2 |
| 20260505051004 | 23 | 103 | 0.0 | 0.0 | 0.00 | 0.00 | 0.00 | 10 | 998.3 |
| 20260505050505 | 23 | 105 | 0.0 | 0.0 | 0.00 | 0.00 | 0.00 | 9 | 998.4 |
| 20260505041505 | 23 | 105 | 0.0 | 0.0 | 0.00 | 0.00 | 0.00 | 9 | 998.5 |
| 20260505041004 | 23 | 107 | 0.0 | 0.0 | 0.00 | 0.00 | 0.00 | 10 | 998.6 |
| 20260505040504 | 23 | 107 | 0.0 | 0.0 | 0.00 | 0.00 | 0.00 | 10 | 998.6 |
| 20260505040004 | 23 | 7 | 0.0 | 0.0 | 0.00 | 0.00 | 0.00 | 9 | 998.6 |
| 20260505035504 | 23 | 11 | 0.0 | 0.0 | 0.00 | 0.00 | 0.00 | 9 | 998.6 |
| 20260505035004 | 23 | 80 | 0.0 | 0.0 | 0.00 | 0.00 | 0.00 | 9 | 998.7 |
| 20260505034504 | 23 | 108 | 0.0 | 0.0 | 0.00 | 0.00 | 0.00 | 8 | 998.6 |
| 20260505034004 | 23 | 102 | 0.0 | 0.0 | 0.00 | 0.00 | 0.00 | 8 | 998.6 |
| 20260505033504 | 24 | 97 | 0.0 | 0.0 | 0.00 | 0.00 | 0.00 | 8 | 998.7 |
| 20260505033004 | 24 | 101 | 0.0 | 0.0 | 0.00 | 0.00 | 0.00 | 7 | 998.6 |
| 20260505032004 | 24 | 103 | 0.0 | 0.0 | 0.00 | 0.00 | 0.00 | 6 | 998.6 |
| 20260505031504 | 24 | 95 | 0.0 | 0.0 | 0.00 | 0.00 | 0.00 | 6 | 998.6 |
| 20260505030004 | 25 | 95 | 0.0 | 0.0 | 0.00 | 0.00 | 0.00 | 5 | 998.5 |
| 20260505023504 | 25 | 6 | 0.0 | 0.0 | 0.00 | 0.00 | 0.00 | 3 | 998.2 |
| 20260505023004 | 25 | 107 | 0.0 | 0.0 | 0.00 | 0.00 | 0.00 | 3 | 998.2 |
| 20260505022504 | 25 | 107 | 0.0 | 0.0 | 0.00 | 0.00 | 0.00 | 3 | 998.2 |
| 20260505022004 | 25 | 107 | 0.0 | 0.0 | 0.00 | 0.00 | 0.00 | 3 | 998.2 |
| 20260505021505 | 25 | 107 | 0.0 | 0.0 | 0.00 | 0.00 | 0.00 | 3 | 998.2 |
| 20260505021004 | 25 | 107 | 0.0 | 0.0 | 0.00 | 0.00 | 0.00 | 3 | 998.3 |
| 20260505020504 | 25 | 107 | 0.0 | 0.0 | 0.00 | 0.00 | 0.00 | 3 | 998.3 |
| 20260505015503 | 26 | 107 | 0.0 | 0.0 | 0.00 | 0.00 | 0.00 | 3 | 998.3 |
| 20260505015004 | 26 | 107 | 0.0 | 0.0 | 0.00 | 0.00 | 0.00 | 3 | 998.3 |
| 20260505014504 | 26 | 105 | 0.0 | 0.0 | 0.00 | 0.00 | 0.00 | 3 | 998.3 |
| 20260505013504 | 26 | 104 | 0.0 | 0.0 | 0.00 | 0.00 | 0.00 | 3 | 998.2 |
| 20260505013004 | 26 | 107 | 0.0 | 0.0 | 0.00 | 0.00 | 0.00 | 3 | 998.1 |
| 20260505012503 | 26 | 106 | 0.0 | 0.0 | 0.00 | 0.00 | 0.00 | 3 | 998.0 |
| 20260505011503 | 27 | 62 | 0.0 | 0.0 | 0.00 | 0.00 | 0.00 | 3 | 997.9 |
| 20260505011004 | 27 | 107 | 0.0 | 0.0 | 0.00 | 0.00 | 0.00 | 3 | 998.0 |
| 20260505010504 | 27 | 107 | 0.0 | 0.0 | 0.00 | 0.00 | 0.00 | 3 | 997.9 |
| 20260505010004 | 27 | 107 | 0.0 | 0.0 | 0.00 | 0.00 | 0.00 | 3 | 997.9 |
| 20260505005004 | 27 | 107 | 0.0 | 0.0 | 0.00 | 0.00 | 0.00 | 3 | 998.1 |
| 20260505004504 | 27 | 107 | 0.0 | 0.0 | 0.00 | 0.00 | 0.00 | 3 | 998.1 |
| 20260505002004 | 28 | 107 | 0.0 | 0.0 | 0.00 | 0.00 | 0.00 | 3 | 998.4 |
| 20260505001505 | 28 | 107 | 0.0 | 0.0 | 0.00 | 0.00 | 0.00 | 3 | 998.3 |
| 20260505001004 | 28 | 107 | 0.0 | 0.0 | 0.00 | 0.00 | 0.00 | 3 | 998.3 |
| 20260505000503 | 28 | 107 | 0.0 | 0.0 | 0.00 | 0.00 | 0.00 | 3 | 998.3 |
| 20260505000004 | 28 | 107 | 0.0 | 0.0 | 0.00 | 0.00 | 0.00 | 3 | 998.3 |
| 20260504235504 | 28 | 107 | 0.0 | 0.0 | 0.00 | 0.00 | 0.00 | 3 | 998.3 |
| 20260504235004 | 28 | 108 | 0.0 | 0.0 | 0.00 | 0.00 | 0.00 | 3 | 998.4 |
| 20260504234004 | 28 | 0 | 0.0 | 0.0 | 0.00 | 0.00 | 0.00 | 3 | 998.2 |
| 20260504232503 | 28 | 5 | 0.0 | 0.0 | 0.00 | 0.00 | 0.00 | 4 | 998.0 |
| 20260504232004 | 28 | 53 | 0.0 | 0.0 | 0.00 | 0.00 | 0.00 | 5 | 998.1 |
| 20260504231504 | 28 | 8 | 0.0 | 0.0 | 0.00 | 0.00 | 0.00 | 5 | 998.2 |
| 20260504231004 | 28 | 0 | 0.0 | 0.0 | 0.00 | 0.00 | 0.00 | 6 | 998.2 |
| 20260504230004 | 28 | 59 | 0.0 | 0.0 | 0.00 | 0.00 | 0.00 | 7 | 998.4 |
| 20260504225504 | 28 | 2 | 0.0 | 0.0 | 0.00 | 0.00 | 0.00 | 8 | 998.4 |
| 20260504225005 | 28 | 11 | 0.0 | 0.0 | 0.00 | 0.00 | 0.00 | 8 | 998.5 |
| 20260504224004 | 28 | 6 | 0.0 | 0.0 | 0.00 | 0.00 | 0.00 | 6 | 998.6 |
| 20260504223504 | 28 | 84 | 0.0 | 0.0 | 0.00 | 0.00 | 0.00 | 5 | 998.7 |
| 20260504223004 | 28 | 0 | 0.0 | 0.0 | 0.00 | 0.00 | 0.00 | 5 | 998.8 |
| 20260504222503 | 28 | 4 | 0.0 | 0.0 | 0.00 | 0.00 | 0.00 | 4 | 998.9 |
| 20260504222004 | 29 | 23 | 0.0 | 0.0 | 0.00 | 0.00 | 0.00 | 4 | 998.8 |
| 20260504221504 | 29 | 0 | 0.0 | 0.0 | 0.00 | 0.00 | 0.00 | 4 | 999.0 |
| 20260504220504 | 29 | 64 | 0.0 | 0.0 | 0.00 | 0.00 | 0.00 | 4 | 999.0 |
| 20260504220004 | 29 | 58 | 0.0 | 0.0 | 0.00 | 0.00 | 0.00 | 3 | 999.0 |
| 20260504215504 | 29 | 102 | 0.0 | 0.0 | 0.00 | 0.00 | 0.00 | 3 | 999.2 |
| 20260504215004 | 30 | 4 | 0.0 | 0.0 | 0.00 | 0.00 | 0.00 | 3 | 999.3 |
| 20260504213504 | 28 | 90 | 0.0 | 0.0 | 0.00 | 0.00 | 0.00 | 5 | 999.5 |
| 20260504213004 | 28 | 5 | 0.0 | 0.0 | 0.00 | 0.00 | 0.00 | 6 | 999.5 |
| 20260504212504 | 28 | 6 | 0.0 | 0.0 | 0.00 | 0.00 | 0.00 | 6 | 999.6 |
| 20260504212004 | 28 | 32 | 0.0 | 0.0 | 0.00 | 0.00 | 0.00 | 5 | 999.8 |
| 20260504211504 | 28 | 2 | 0.0 | 0.0 | 0.00 | 0.00 | 0.00 | 6 | 1000.1 |
| 20260504211004 | 29 | 32 | 0.0 | 0.0 | 0.00 | 0.00 | 0.00 | 6 | 999.9 |
| 20260504210004 | 29 | 96 | 0.0 | 0.0 | 0.00 | 0.00 | 0.00 | 6 | 1000.1 |
| 20260504205004 | 29 | 73 | 0.0 | 0.0 | 0.00 | 0.00 | 0.00 | 8 | 1000.2 |
| 20260504204004 | 28 | 75 | 0.0 | 0.0 | 0.00 | 0.00 | 0.00 | 8 | 1000.4 |
| 20260504203504 | 28 | 98 | 0.0 | 0.0 | 0.00 | 0.00 | 0.00 | 7 | 1000.4 |
| 20260504203006 | 28 | 65 | 0.0 | 0.0 | 0.00 | 0.00 | 0.00 | 8 | 1000.5 |
| 20260504202504 | 29 | 111 | 0.0 | 0.0 | 0.00 | 0.00 | 0.00 | 7 | 1000.6 |
| 20260504202003 | 28 | 0 | 0.0 | 0.0 | 0.00 | 0.00 | 0.00 | 6 | 1000.6 |
| 20260504201504 | 28 | 110 | 0.0 | 0.0 | 0.00 | 0.00 | 0.00 | 6 | 1000.7 |
| 20260504195504 | 28 | 108 | 0.0 | 0.0 | 0.00 | 0.00 | 0.00 | 9 | 1000.9 |
| 20260504195003 | 28 | 110 | 0.0 | 0.0 | 0.00 | 0.00 | 0.00 | 9 | 1001.0 |
| 20260504194004 | 28 | 110 | 0.0 | 0.0 | 0.00 | 0.00 | 0.00 | 10 | 1001.3 |
| 20260504193504 | 28 | 110 | 0.0 | 0.0 | 0.00 | 0.00 | 0.00 | 10 | 1001.2 |
| 20260504193004 | 28 | 111 | 0.0 | 0.0 | 0.00 | 0.00 | 0.00 | 9 | 1001.4 |
| 20260504192504 | 27 | 111 | 0.0 | 0.0 | 0.00 | 0.00 | 0.00 | 10 | 1001.4 |
| 20260504191503 | 27 | 111 | 0.0 | 0.0 | 0.00 | 0.00 | 0.00 | 10 | 1001.5 |
| 20260504185503 | 28 | 111 | 0.0 | 0.0 | 0.00 | 0.00 | 0.00 | 9 | 1001.8 |
| 20260504184003 | 28 | 111 | 0.0 | 0.0 | 0.00 | 0.00 | 0.00 | 9 | 1002.2 |
| 20260504183504 | 28 | 110 | 0.0 | 0.0 | 0.00 | 0.00 | 0.00 | 9 | 1002.3 |
| 20260504183004 | 27 | 111 | 0.0 | 0.0 | 0.00 | 0.00 | 0.00 | 10 | 1002.5 |
| 20260504182503 | 27 | 111 | 0.0 | 0.0 | 0.00 | 0.00 | 0.00 | 10 | 1002.6 |
| 20260504182004 | 27 | 110 | 0.0 | 0.0 | 0.00 | 0.00 | 0.00 | 10 | 1002.7 |
| 20260504181504 | 27 | 110 | 0.0 | 0.0 | 0.00 | 0.00 | 0.00 | 11 | 1002.8 |
| 20260504181004 | 27 | 110 | 0.0 | 0.0 | 0.00 | 0.00 | 0.00 | 10 | 1002.9 |
| 20260504180504 | 27 | 108 | 0.0 | 0.0 | 0.00 | 0.00 | 0.00 | 11 | 1003.0 |
| 20260504174504 | 27 | 19 | 0.0 | 0.0 | 0.00 | 0.00 | 0.00 | 10 | 1003.3 |
| 20260504173503 | 27 | 10 | 0.0 | 0.0 | 0.00 | 0.00 | 0.00 | 10 | 1003.5 |
| 20260504173004 | 27 | 16 | 0.0 | 0.0 | 0.00 | 0.00 | 0.00 | 11 | 1003.6 |
| 20260504172503 | 27 | 27 | 0.0 | 0.0 | 0.00 | 0.00 | 0.00 | 10 | 1003.7 |
| 20260504172004 | 27 | 0 | 0.0 | 0.0 | 0.00 | 0.00 | 0.00 | 10 | 1003.7 |